Orbital Elements at Epoch 2459200.5 (2020-Dec-17.0) TDB
Reference: JPL 26 (heliocentric ecliptic J2000)
Element | Value | Uncertainty (1-sigma) | Units |
e | .2466804461283013 | 3.2545e-08 | |
a | 2.564863686933737 | 1.63e-08 | au |
q | 1.932161968382643 | 8.3295e-08 | au |
i | 14.08853138939491 | 3.9835e-06 | deg |
node | 148.5787795693656 | 2.1769e-05 | deg |
peri | 164.4492319413425 | 2.616e-05 | deg |
M | 334.0237441124597 | 1.7741e-05 | deg |
tp | 2459308.760221983863 (2021-Apr-04.26022198) | 7.4443e-05 | TDB |
period | 1500.35786846728 4.11 | 1.4302e-05 3.916e-08 | d yr |
n | .2399427547027597 | 2.2872e-09 | deg/d |
Q | 3.197565405484831 | 2.032e-08 | au |
|
| | Orbit Determination Parameters
Additional Information
|